Regional Weather Roundup
Issued by NWS Charleston, SC

Current Version | Previous Version | Text Only | Print | Product List | Glossary Off
Versions: 1 2 3 4 5 6 7 8 9 10 11 12 13 14 15 16 17 18 19 20 21 22 23 24 25 26 27 28 29 30 31 32 33 34 35 36 37 38 39 40 41 42 43 44 45 46 47 48 49 50

000
ASUS42 KCHS 220210
RWRCHS
REGIONAL WEATHER ROUNDUP
NATIONAL WEATHER SERVICE CHARLESTON SC
1000 PM EDT SUN SEP 21 2014

NOTE: "FAIR" INDICATES FEW OR NO CLOUDS BELOW 12,000 FEET WITH NO
SIGNIFICANT WEATHER AND/OR OBSTRUCTIONS TO VISIBILITY.

NOT ALL STATIONS ARE QUALITY CONTROLLED BY THE NATIONAL
WEATHER SERVICE. USE DATA WITH CAUTION...ESPECIALLY
DEWPOINT OBSERVATIONS.

SCZ027-030-031-034>040-042>050-220300-
...SOUTH CAROLINA...

CITY           SKY/WX    TMP DP  RH WIND       PRES   REMARKS
N CHARLESTON   PTCLDY    75  66  73 SW7       29.95R
WATERFRONT PRK NOT AVBL
FORT JOHNSON   NOT AVBL
MOUNT PLEASANT FAIR      77  72  83 CALM      29.95S
JOHNS ISLAND   CLEAR     79  75  89 CALM      29.96R
PINOPOLIS        N/A     81  66  61 SW7       29.86R
MONCKS CORNER    N/A     75  68  78 SW5       29.95R
SUMMERVILLE    FAIR      72  68  88 CALM      29.96R
BEAUFORT MCAS  CLEAR     77  68  73 E6        29.96R
BEAUFORT ARPT  FAIR      79  70  73 SW6       29.96S
HILTON HEAD IS CLEAR     77  72  83 S8        29.98S
GEORGETOWN     NOT AVBL
WALTERBORO     CLEAR     73  64  73 SW5       29.97R
ORANGEBURG     CLEAR     73  64  73 S6        29.95R
BARNWELL       FAIR      73  64  73 SW3       29.96R
AIKEN          FAIR      73  66  78 SW5       29.98R
MANNING        FAIR      79  68  69 SW7       29.94R
KINGSTREE      NOT AVBL
COLUMBIA       CLEAR     76  64  66 SW5       29.91R
SUMTER         CLEAR     74  67  78 S7        29.91R
FLORENCE       CLEAR     75  65  70 S8        29.91R
MYRTLE BEACH   CLEAR     79  66  65 SW9       29.93R
N MYRTLE BEACH CLEAR     79  70  74 SW14      29.92R

$$

GAZ063-065-086>088-099>101-113>116-118-119-134-136>141-150-220300-
...GEORGIA...

CITY           SKY/WX    TMP DP  RH WIND       PRES   REMARKS
SAVANNAH ARPT  CLEAR     75  65  70 S9        29.99R
HUNTER AAF     CLEAR     76  68  74 VRB6      29.97R
FORT STEWART   CLEAR     70  64  82 CALM      29.99R
STATESBORO     NOT AVBL
SYLVANIA       CLEAR     78  70  77 CALM      29.98R
CLAXTON        FAIR      70  70 100 CALM      29.98S
THOMSON        CLEAR     75  70  84 SW3       30.00R
AUGUSTA-BUSH   CLEAR     71  63  75 SW6       29.94R
AUGUSTA-DANIEL CLEAR     78  62  57 SW3       29.96R
SWAINSBORO     FAIR      79  66  65 W3        29.99R
VIDALIA        CLEAR     73  64  73 SW3       29.99S
ALMA           CLEAR     68  64  87 CALM      30.01R
WAYCROSS       NOT AVBL
JESUP          FAIR      72  64  78 CALM      30.01R
BRUNSWICK      CLEAR     72  68  88 CALM      30.02R
SAINT SIMONS   CLEAR     78  67  68 SW8       30.01R

$$

SCZ027-028-034-036>038-045-046-048>050-GAZ119-141-220300-
...LAKE AND SUPPLEMENTAL COASTAL OBSERVATIONS...

STATION/POSITION TIME  TEMP    WIND        PRES    WAVE   SWELL
                       AIR SEA DIR/SP/G            HT/PER HT/PER/DIR
                 (UTC) (F)     (DEG/KT/KT) (MB)    (FT/S) (FT/S/D)
UPR LAKE MARION  NOT AVBL
WINYAH BAY       0100   78     210/  7     1013.0R
LAKE MURRAY      0100   80     230/  9/ 11 1012.2R
ACE BASIN NERRS  0100   74        CALM     1014.0S
FORT PULASKI     0200   78     210/  7/ 11 1015.5S
SAPELO ISLAND    NOT AVBL

$$

ANZ835-935-AMZ111-154-330-350-352-354-374-450-454-472-220300-
...C-MAN AND BUOY OBSERVATIONS...

STATION/POSITION TIME  TEMP    WIND        PRES    WAVE   SWELL
                       AIR SEA DIR/SP/G            HT/PER HT/PER/DIR
                 (UTC) (F)     (DEG/KT/KT) (MB)    (FT/S) (FT/S/D)
FOLLY BEACH CMAN 0100   81     210/ 15/ 18 1014.4R
BUOY 41004       0200   81 82  230/ 16/ 17 1014.1R   3/ 7   2/ 7
BUOY 41008       0200   82 83  210/ 14/ 16 1015.8R   2/ 3   2/120/10
5E ST. MARYS GA  0100      84                N/A     2/10
FRYING PAN BUOY  NOT AVBL
BUOY 41025       0200   80     240/ 19/ 23 1010.7R   6/10   5/140/10
CAPE LOOKOUT NC  0100   78     230/  9/ 12 1011.6R
BUOY 41002       0054   80 81  270/ 12/ 14 1015.2R   8/ 7   7/200/ 7
BUOY 41010       0200   82 85   CALM  /  2 1017.0R   5/ 9   5/ 10/ 9
BUOY 41012       NOT AVBL
ST AUGUSTINE FL  0200   80     130/  5/  5 1017.3R
CAPERS NEARSHORE NOT AVBL
FRIPP NEARSHORE  NOT AVBL


$$



USA.gov is the U.S. government's official web portal to all federal, state and local government web resources and services.